Sioux Falls, SD

8:38 PM CST on February 11, 2016 (GMT -0600)
Foss

Weather History for KFSD - March, 2012

Change the Weather History Date:

Monday, March 5, 2012

  Actual Average Record
Temperature  
Mean Temperature 34 °F 28 °F  
Max Temperature 51 °F 38 °F 71 °F (2000)
Min Temperature 17 °F 19 °F -19 °F (1960)
Degree Days  
Heating Degree Days 31 37  
Month to date heating degree days 189 188  
Since 1 July heating degree days 5189 6038  
Cooling Degree Days 0 0  
Month to date cooling degree days 0 0  
Year to date cooling degree days 0 0  
Moisture  
Dew Point 26 °F    
Average Humidity 69    
Maximum Humidity 91    
Minimum Humidity 50    
Precipitation  
Precipitation 0.00 in 0.04 in 0.76 in (1915)
Month to date precipitation 0.02 0.18  
Year to date precipitation 3.20 1.34  
Snow  
Snow 0.00 in 0.30 in 9.00 in (1915)
Month to date snowfall 0.3 1.5  
Since 1 July snowfall 15.9 33.0  
Snow Depth 0.00 in    
Sea Level Pressure  
Sea Level Pressure 30.01 in    
Wind  
Wind Speed 12 mph (South)    
Max Wind Speed 29 mph    
Max Gust Speed 38 mph    
Visibility 9 miles    
Events      
T = Trace of Precipitation, MM = Missing Value Source: NWS Daily Summary

Daily Weather History Graph

Daily Weather History Graph

Search for Another Location

Airport or City:

Trip Planner

Search our weather history database for the weather conditions in past years. The results will help you decide how hot, cold, wet, or windy it might be!

Date:

Astronomy

Mar. 05, 2012 Rise Set
Actual Time 6:55 AM CST 6:21 PM CST
Civil Twilight 6:27 AM CST 6:50 PM CST
Nautical Twilight 5:54 AM CST 7:23 PM CST
Astronomical Twilight 5:20 AM CST 7:56 PM CST
Moon 3:37 PM CST (3/5) 5:00 AM CST (3/5)
Length of Visible Light 12h 23m
Length of Day
11h 25m
Waxing Gibbous, 91% of the Moon is Illuminated
Mar 5
Waxing Gibbous
Mar 8
Full
Mar 14
Last Quarter
Mar 22
New
Mar 30
First Quarter

Hourly Weather History & Observations

Time (CST) Temp. Windchill Dew Point Humidity Pressure Visibility Wind Dir Wind Speed Gust Speed Precip Events Conditions
12:56 AM 21.0 °F 16.2 °F 18.0 °F 88% 30.20 in 7.0 mi SW 3.5 mph - N/A   Clear
1:56 AM 23.0 °F 18.4 °F 19.9 °F 88% 30.21 in 5.0 mi SW 3.5 mph - N/A   Clear
2:56 AM 19.0 °F - 16.0 °F 88% 30.20 in 6.0 mi Calm Calm - N/A   Clear
3:56 AM 17.1 °F - 14.0 °F 88% 30.19 in 6.0 mi Calm Calm - N/A   Clear
4:56 AM 17.1 °F - 14.0 °F 88% 30.20 in 6.0 mi Calm Calm - N/A   Scattered Clouds
5:56 AM 24.1 °F 18.2 °F 21.9 °F 91% 30.18 in 9.0 mi South 4.6 mph - N/A   Overcast
6:56 AM 25.0 °F - 21.9 °F 88% 30.18 in 10.0 mi Calm Calm - N/A   Mostly Cloudy
7:56 AM 27.0 °F 18.0 °F 23.0 °F 85% 30.17 in 10.0 mi South 9.2 mph - N/A   Clear
8:56 AM 32.0 °F 21.6 °F 25.0 °F 75% 30.14 in 10.0 mi South 15.0 mph - N/A   Clear
9:56 AM 34.0 °F 23.0 °F 25.0 °F 70% 30.11 in 10.0 mi South 18.4 mph 27.6 mph N/A   Clear
10:56 AM 37.0 °F 25.9 °F 26.1 °F 65% 30.06 in 10.0 mi South 23.0 mph 31.1 mph N/A   Clear
11:56 AM 39.0 °F 28.3 °F 28.0 °F 65% 30.04 in 10.0 mi SSW 24.2 mph 38.0 mph N/A   Clear
12:56 PM 43.0 °F 32.9 °F 28.9 °F 58% 29.99 in 10.0 mi South 27.6 mph 36.8 mph N/A   Clear
1:56 PM 46.0 °F 38.8 °F 30.9 °F 56% 29.94 in 10.0 mi South 18.4 mph 34.5 mph N/A   Clear
2:56 PM 48.9 °F - 32.0 °F 52% 29.91 in 10.0 mi SSW 17.3 mph 33.4 mph N/A   Clear
3:56 PM 50.0 °F - 32.0 °F 50% 29.90 in 10.0 mi SSW 18.4 mph 28.8 mph N/A   Clear
4:56 PM 50.0 °F - 33.1 °F 52% 29.88 in 10.0 mi South 15.0 mph 24.2 mph N/A   Clear
5:56 PM 46.9 °F - 33.1 °F 59% 29.87 in 10.0 mi South 12.7 mph - N/A   Clear
6:56 PM 45.0 °F 38.9 °F 32.0 °F 60% 29.85 in 10.0 mi South 12.7 mph - N/A   Clear
7:56 PM 45.0 °F 38.2 °F 30.0 °F 56% 29.83 in 10.0 mi South 15.0 mph - N/A   Clear
8:56 PM 44.1 °F 38.1 °F 28.9 °F 55% 29.82 in 10.0 mi South 11.5 mph - N/A   Clear
9:56 PM 42.1 °F 36.1 °F 28.9 °F 60% 29.81 in 10.0 mi South 10.4 mph - N/A   Clear
10:56 PM 42.1 °F 35.7 °F 28.9 °F 60% 29.77 in 10.0 mi South 11.5 mph - N/A   Clear
11:56 PM 41.0 °F 35.8 °F 28.9 °F 62% 29.74 in 10.0 mi SSE 8.1 mph - N/A   Clear